Back to Previous

Regional Weather Roundup

659 
ASUS44 KLZK 270905
RWRLZK

WEATHER ROUNDUP FOR ARKANSAS
NATIONAL WEATHER SERVICE LITTLE ROCK AR
400 AM CDT MON JUN 27 2016

NOTE: "FAIR" INDICATES FEW OR NO CLOUDS BELOW 12,000 FEET WITH NO
SIGNIFICANT WEATHER AND/OR OBSTRUCTIONS TO VISIBILITY.

ARZ001-003-010-029-271000-
NORTHWEST ARKANSAS
  
CITY           SKY/WX    TMP DP  RH WIND       PRES   REMARKS
FAYETTEVILLE   CLOUDY    71  71 100 E3        30.11R                  
FORT SMITH     CLOUDY    75  70  84 S3        30.06F                  
HARRISON       CLOUDY    71  70  96 CALM      30.13R                  
BENTONVILLE    CLOUDY    72  66  83 N5        30.13R                  
ROGERS         CLOUDY    71  70  96 CALM      30.14R                  
SILOAM SPGS    MOCLDY    72  63  73 NW3       30.12S                  
HIGHFILL       CLOUDY    72  71  97 N5        30.11R                  
$$

ARZ004-005-016-271000-
NORTH CENTRAL ARKANSAS
  
CITY           SKY/WX    TMP DP  RH WIND       PRES   REMARKS
BATESVILLE     CLOUDY    73  70  88 N5        30.09S                  
FLIPPIN        CLOUDY    73  70  88 W5        30.08S                  
MTN HOME       CLOUDY    71  70  96 CALM      30.10R                  
$$

ARZ040-041-271000-
WEST CENTRAL ARKANSAS
  
CITY           SKY/WX    TMP DP  RH WIND       PRES   REMARKS
MENA           CLOUDY    77  75  94 CALM      30.13F                  
MOUNT IDA      CLOUDY    72  69  90 SE6       30.09F                  
$$

ARZ009-017-025-026-028-271000-
NORTHEAST ARKANSAS
  
CITY           SKY/WX    TMP DP  RH WIND       PRES   REMARKS
CORNING          N/A     75  75 100 W5        30.07R                  
JONESBORO      MOCLDY    76  73  91 NE3       30.06R                  
NEWPORT        CLOUDY    75  74  97 W7        30.10R                  
WALNUT RIDGE   MOCLDY    73  68  83 N5        30.06S                  
BLYTHEVILLE    CLOUDY    79  76  90 NW6       30.06R                  
$$

ARZ022-023-033-042-044-271000-
CENTRAL ARKANSAS
  
CITY           SKY/WX    TMP DP  RH WIND       PRES   REMARKS
LITTLE ROCK    TSTM      76  72  87 SW7       30.10F                  
N LITTLE ROCK    N/A     73  70  92 W6        30.07S                  
JACKSONVILLE   DRIZZLE   78  70  78 SW12      30.07F                  
SEARCY         PTCLDY    78  74  87 MISG      30.08S                  
RUSSELLVILLE   CLOUDY    72  71  97 CALM      30.07F                  
$$

ARZ036-271000-
EAST ARKANSAS
  
CITY           SKY/WX    TMP DP  RH WIND       PRES   REMARKS
WEST MEMPHIS   CLOUDY    78  74  87 W3        30.04R                  
$$

ARZ050-053-066-070-073-271000-
SOUTHWEST ARKANSAS
  
CITY           SKY/WX    TMP DP  RH WIND       PRES   REMARKS
ARKADELPHIA    FAIR      73  72  97 N3        30.09F                  
CAMDEN         CLOUDY    75  68  78 NW5       30.09R                  
TEXARKANA      CLOUDY    79  75  87 NE10      30.10R                  
EL DORADO      CLOUDY    77  75  93 N6        30.10R                  
DE QUEEN       MOCLDY    78  77  96 E6        30.07S                  
$$

ARZ056-057-069-271000-
SOUTHEAST ARKANSAS
  
CITY           SKY/WX    TMP DP  RH WIND       PRES   REMARKS
PINE BLUFF     LGT RAIN  74  71  91 NW10      30.08F                  
STUTTGART      CLOUDY    77  68  73 W9        30.07F                  
MONTICELLO     CLOUDY    78  70  76 NW6       30.07R                  

$$


  


USA.gov is the U.S. government's official web portal to all federal, state and local government web resources and services.